Time,TemperatureF,DewpointF,PressureIn,WindDirection,WindDirectionDegrees,WindSpeedMPH,WindSpeedGustMPH,Humidity,HourlyPrecipIn,Conditions,Clouds,dailyrainin,SoftwareType,DateUTC
2013-11-13 00:02:00,19.2,12.9,29.48,SW,225,6.9,6.9,76,0.00,CLR,,0.00,WeatherDisplay:10.37,2013-11-13 06:02:00,
2013-11-13 00:07:00,19.2,12.9,29.49,SW,225,6.9,6.9,76,0.00,CLR,,0.00,WeatherDisplay:10.37,2013-11-13 06:07:00,
2013-11-13 00:12:00,19.2,12.9,29.49,South,180,4.6,4.6,76,0.00,CLR,,0.00,WeatherDisplay:10.37,2013-11-13 06:12:00,
2013-11-13 00:17:00,19.0,12.7,29.48,South,180,6.9,6.9,76,0.00,CLR,,0.00,WeatherDisplay:10.37,2013-11-13 06:17:00,
2013-11-13 00:22:00,19.0,12.7,29.48,South,180,8.1,8.1,76,0.00,CLR,,0.00,WeatherDisplay:10.37,2013-11-13 06:22:00,
2013-11-13 00:27:00,19.2,12.9,29.47,South,180,6.9,6.9,76,0.00,CLR,,0.00,WeatherDisplay:10.37,2013-11-13 06:27:00,
2013-11-13 00:32:00,19.0,12.7,29.47,South,180,8.1,8.1,76,0.00,CLR,,0.00,WeatherDisplay:10.37,2013-11-13 06:32:00,
2013-11-13 00:37:00,19.0,13.0,29.47,South,180,8.1,8.1,77,0.00,CLR,,0.00,WeatherDisplay:10.37,2013-11-13 06:37:00,
2013-11-13 00:42:00,18.9,12.8,29.47,South,180,8.1,8.1,77,0.00,CLR,,0.00,WeatherDisplay:10.37,2013-11-13 06:42:00,
2013-11-13 00:47:00,18.7,12.4,29.46,South,180,6.9,6.9,76,0.00,CLR,,0.00,WeatherDisplay:10.37,2013-11-13 06:47:00,
2013-11-13 00:52:00,18.5,12.5,29.46,South,180,5.8,5.8,77,0.00,CLR,,0.00,WeatherDisplay:10.37,2013-11-13 06:52:00,
2013-11-13 00:57:00,18.7,12.7,29.46,South,180,6.9,6.9,77,0.00,CLR,,0.00,WeatherDisplay:10.37,2013-11-13 06:57:00,
2013-11-13 01:02:00,18.7,12.7,29.46,South,180,6.9,6.9,77,0.00,CLR,,0.00,WeatherDisplay:10.37,2013-11-13 07:02:00,
2013-11-13 01:07:00,18.7,12.7,29.46,South,180,6.9,6.9,77,0.00,CLR,,0.00,WeatherDisplay:10.37,2013-11-13 07:07:00,
2013-11-13 01:12:00,18.9,12.8,29.46,South,180,5.8,5.8,77,0.00,CLR,,0.00,WeatherDisplay:10.37,2013-11-13 07:12:00,
2013-11-13 01:17:00,18.9,12.8,29.46,SW,225,5.8,5.8,77,0.00,CLR,,0.00,WeatherDisplay:10.37,2013-11-13 07:17:00,
2013-11-13 01:22:00,18.7,12.7,29.46,West,270,4.6,4.6,77,0.00,CLR,,0.00,WeatherDisplay:10.37,2013-11-13 07:22:00,
2013-11-13 01:27:00,18.7,12.7,29.45,South,180,3.5,3.5,77,0.00,CLR,,0.00,WeatherDisplay:10.37,2013-11-13 07:27:00,
2013-11-13 01:32:00,18.5,12.8,29.45,South,180,4.6,4.6,78,0.00,CLR,,0.00,WeatherDisplay:10.37,2013-11-13 07:32:00,
2013-11-13 01:37:00,18.5,12.5,29.44,SW,225,6.9,6.9,77,0.00,CLR,,0.00,WeatherDisplay:10.37,2013-11-13 07:37:00,
2013-11-13 01:42:00,18.5,12.8,29.44,South,180,5.8,5.8,78,0.00,CLR,,0.00,WeatherDisplay:10.37,2013-11-13 07:42:00,
2013-11-13 01:47:00,18.3,12.3,29.44,SSE,158,5.8,5.8,77,0.00,CLR,,0.00,WeatherDisplay:10.37,2013-11-13 07:47:00,
2013-11-13 01:52:00,18.3,12.6,29.44,SSE,158,4.5,4.5,78,0.00,CLR,,0.00,WeatherDisplay:10.37,2013-11-13 07:52:00,
2013-11-13 01:57:00,18.3,12.6,29.44,South,180,3.5,3.5,78,0.00,CLR,,0.00,WeatherDisplay:10.37,2013-11-13 07:57:00,
2013-11-13 02:02:00,18.3,12.6,29.44,South,180,5.8,5.8,78,0.00,CLR,,0.00,WeatherDisplay:10.37,2013-11-13 08:02:00,
2013-11-13 02:07:00,18.3,12.6,29.43,South,180,5.8,5.8,78,0.00,CLR,,0.00,WeatherDisplay:10.37,2013-11-13 08:07:00,
2013-11-13 02:12:00,18.5,13.1,29.44,South,180,6.9,6.9,79,0.00,CLR,,0.00,WeatherDisplay:10.37,2013-11-13 08:12:00,
2013-11-13 02:17:00,18.5,12.8,29.43,South,180,8.1,8.1,78,0.00,CLR,,0.00,WeatherDisplay:10.37,2013-11-13 08:17:00,
2013-11-13 02:22:00,18.9,13.1,29.42,South,180,9.8,9.8,78,0.00,CLR,,0.00,WeatherDisplay:10.37,2013-11-13 08:22:00,
2013-11-13 02:27:00,19.2,13.8,29.43,South,180,8.1,8.1,79,0.00,CLR,,0.00,WeatherDisplay:10.37,2013-11-13 08:27:00,
2013-11-13 02:32:00,19.4,13.7,29.43,South,180,9.2,9.2,78,0.00,CLR,,0.00,WeatherDisplay:10.37,2013-11-13 08:32:00,
2013-11-13 02:37:00,19.4,13.4,29.42,South,180,10.4,10.4,77,0.00,CLR,,0.00,WeatherDisplay:10.37,2013-11-13 08:37:00,
2013-11-13 02:42:00,19.4,13.4,29.42,South,180,10.4,10.4,77,0.00,CLR,,0.00,WeatherDisplay:10.37,2013-11-13 08:42:00,
2013-11-13 02:47:00,19.6,13.8,29.41,South,180,10.4,10.4,78,0.00,CLR,,0.00,WeatherDisplay:10.37,2013-11-13 08:47:00,
2013-11-13 02:52:00,19.8,14.0,29.41,South,180,11.5,11.5,78,0.00,CLR,,0.00,WeatherDisplay:10.37,2013-11-13 08:52:00,
2013-11-13 02:57:00,19.9,13.6,29.41,South,180,11.5,11.5,76,0.00,CLR,,0.00,WeatherDisplay:10.37,2013-11-13 08:57:00,
2013-11-13 03:02:00,19.9,13.9,29.41,South,180,11.5,11.5,77,0.00,CLR,,0.00,WeatherDisplay:10.37,2013-11-13 09:02:00,
2013-11-13 03:07:00,19.9,13.9,29.40,South,180,11.5,11.5,77,0.00,CLR,,0.00,WeatherDisplay:10.37,2013-11-13 09:07:00,
2013-11-13 03:12:00,19.9,13.6,29.40,South,180,12.7,12.7,76,0.00,CLR,,0.00,WeatherDisplay:10.37,2013-11-13 09:12:00,
2013-11-13 03:17:00,19.8,13.4,29.40,South,180,15.0,15.0,76,0.00,CLR,,0.00,WeatherDisplay:10.37,2013-11-13 09:17:00,
2013-11-13 03:22:00,19.8,13.7,29.39,South,180,12.7,12.7,77,0.00,CLR,,0.00,WeatherDisplay:10.37,2013-11-13 09:22:00,
2013-11-13 03:27:00,19.9,14.2,29.39,South,180,10.4,10.4,78,0.00,CLR,,0.00,WeatherDisplay:10.37,2013-11-13 09:27:00,
2013-11-13 03:32:00,19.9,13.9,29.39,South,180,12.7,12.7,77,0.00,CLR,,0.00,WeatherDisplay:10.37,2013-11-13 09:32:00,
2013-11-13 03:37:00,20.1,14.4,29.39,South,180,11.5,11.5,78,0.00,CLR,,0.00,WeatherDisplay:10.37,2013-11-13 09:37:00,
2013-11-13 03:42:00,20.1,14.4,29.39,South,180,10.4,10.4,78,0.00,CLR,,0.00,WeatherDisplay:10.37,2013-11-13 09:42:00,
2013-11-13 03:47:00,19.9,13.9,29.39,South,180,12.7,12.7,77,0.00,CLR,,0.00,WeatherDisplay:10.37,2013-11-13 09:47:00,
2013-11-13 03:52:00,19.8,13.7,29.38,South,180,11.5,11.5,77,0.00,CLR,,0.00,WeatherDisplay:10.37,2013-11-13 09:52:00,
2013-11-13 03:57:00,19.6,13.8,29.38,South,180,11.5,11.5,78,0.00,CLR,,0.00,WeatherDisplay:10.37,2013-11-13 09:57:00,
2013-11-13 04:02:00,19.6,13.8,29.38,South,180,11.5,11.5,78,0.00,CLR,,0.00,WeatherDisplay:10.37,2013-11-13 10:02:00,
2013-11-13 04:07:00,19.6,13.8,29.38,South,180,10.4,10.4,78,0.00,CLR,,0.00,WeatherDisplay:10.37,2013-11-13 10:07:00,
2013-11-13 04:12:00,19.4,13.7,29.38,South,180,9.2,9.2,78,0.00,CLR,,0.00,WeatherDisplay:10.37,2013-11-13 10:12:00,
2013-11-13 04:17:00,19.6,14.1,29.37,SE,135,10.4,10.4,79,0.00,CLR,,0.00,WeatherDisplay:10.37,2013-11-13 10:17:00,
2013-11-13 04:22:00,19.6,14.1,29.37,SE,135,10.4,10.4,79,0.00,CLR,,0.00,WeatherDisplay:10.37,2013-11-13 10:22:00,
2013-11-13 04:27:00,19.6,13.8,29.36,South,180,10.4,10.4,78,0.00,CLR,,0.00,WeatherDisplay:10.37,2013-11-13 10:27:00,
2013-11-13 04:32:00,19.6,13.8,29.36,South,180,10.4,10.4,78,0.00,CLR,,0.00,WeatherDisplay:10.37,2013-11-13 10:32:00,
2013-11-13 04:37:00,19.6,14.1,29.36,South,180,10.4,10.4,79,0.00,CLR,,0.00,WeatherDisplay:10.37,2013-11-13 10:37:00,
2013-11-13 04:42:00,19.8,14.0,29.36,South,180,10.4,10.4,78,0.00,CLR,,0.00,WeatherDisplay:10.37,2013-11-13 10:42:00,
2013-11-13 04:47:00,19.8,14.0,29.36,South,180,9.2,9.2,78,0.00,CLR,,0.00,WeatherDisplay:10.37,2013-11-13 10:47:00,
2013-11-13 04:52:00,19.9,13.6,29.34,South,180,13.8,13.8,76,0.00,CLR,,0.00,WeatherDisplay:10.37,2013-11-13 10:52:00,
2013-11-13 04:57:00,20.1,14.4,29.33,South,180,11.5,11.5,78,0.00,CLR,,0.00,WeatherDisplay:10.37,2013-11-13 10:57:00,
2013-11-13 05:02:00,20.1,13.8,29.33,South,180,15.0,15.0,76,0.00,CLR,,0.00,WeatherDisplay:10.37,2013-11-13 11:02:00,
2013-11-13 05:07:00,20.1,13.8,29.33,South,180,15.0,15.0,76,0.00,CLR,,0.00,WeatherDisplay:10.37,2013-11-13 11:07:00,
2013-11-13 05:12:00,20.3,13.6,29.32,South,180,12.7,12.7,75,0.00,CLR,,0.00,WeatherDisplay:10.37,2013-11-13 11:12:00,
2013-11-13 05:17:00,20.3,13.9,29.32,South,180,10.4,10.4,76,0.00,CLR,,0.00,WeatherDisplay:10.37,2013-11-13 11:17:00,
2013-11-13 05:22:00,20.1,13.5,29.32,South,180,11.5,11.5,75,0.00,CLR,,0.00,WeatherDisplay:10.37,2013-11-13 11:22:00,
2013-11-13 05:27:00,20.1,13.5,29.32,SE,135,11.5,11.5,75,0.00,CLR,,0.00,WeatherDisplay:10.37,2013-11-13 11:27:00,
2013-11-13 05:32:00,20.1,13.5,29.32,South,180,10.4,10.4,75,0.00,CLR,,0.00,WeatherDisplay:10.37,2013-11-13 11:32:00,
2013-11-13 05:37:00,20.1,13.2,29.31,South,180,11.5,11.5,74,0.00,CLR,,0.00,WeatherDisplay:10.37,2013-11-13 11:37:00,
2013-11-13 05:42:00,20.1,13.2,29.31,South,180,11.5,11.5,74,0.00,CLR,,0.00,WeatherDisplay:10.37,2013-11-13 11:42:00,
2013-11-13 05:47:00,20.1,13.2,29.31,South,180,10.4,10.4,74,0.00,CLR,,0.00,WeatherDisplay:10.37,2013-11-13 11:47:00,
2013-11-13 05:52:00,20.1,12.8,29.31,South,180,12.7,12.7,73,0.00,CLR,,0.00,WeatherDisplay:10.37,2013-11-13 11:52:00,
2013-11-13 05:57:00,20.3,13.0,29.31,South,180,12.7,12.7,73,0.00,CLR,,0.00,WeatherDisplay:10.37,2013-11-13 11:57:00,
2013-11-13 06:02:00,20.7,13.4,29.30,South,180,13.8,13.8,73,0.00,CLR,,0.00,WeatherDisplay:10.37,2013-11-13 12:02:00,
2013-11-13 06:07:00,20.8,13.5,29.30,South,180,12.7,12.7,73,0.00,CLR,,0.00,WeatherDisplay:10.37,2013-11-13 12:07:00,
2013-11-13 06:12:00,20.7,13.1,29.30,South,180,11.5,11.5,72,0.00,CLR,,0.00,WeatherDisplay:10.37,2013-11-13 12:12:00,
2013-11-13 06:17:00,20.7,13.1,29.30,South,180,11.5,11.5,72,0.00,CLR,,0.00,WeatherDisplay:10.37,2013-11-13 12:17:00,
2013-11-13 06:22:00,20.7,13.1,29.30,South,180,10.4,10.4,72,0.00,CLR,,0.00,WeatherDisplay:10.37,2013-11-13 12:22:00,
2013-11-13 06:27:00,20.8,13.2,29.30,South,180,11.5,11.5,72,0.00,CLR,,0.00,WeatherDisplay:10.37,2013-11-13 12:27:00,
2013-11-13 06:32:00,21.2,13.3,29.29,South,180,12.7,12.7,71,0.00,CLR,,0.00,WeatherDisplay:10.37,2013-11-13 12:32:00,
2013-11-13 06:37:00,21.4,13.8,29.29,SE,135,13.8,13.8,72,0.00,CLR,,0.00,WeatherDisplay:10.37,2013-11-13 12:37:00,
2013-11-13 06:42:00,21.4,13.4,29.28,South,180,12.7,12.7,71,0.00,CLR,,0.00,WeatherDisplay:10.37,2013-11-13 12:42:00,
2013-11-13 06:47:00,21.6,13.9,29.28,South,180,12.7,12.7,72,0.00,CLR,,0.00,WeatherDisplay:10.37,2013-11-13 12:47:00,
2013-11-13 06:52:00,21.6,13.9,29.28,South,180,12.7,12.7,72,0.00,CLR,,0.00,WeatherDisplay:10.37,2013-11-13 12:52:00,
2013-11-13 06:57:00,21.7,13.8,29.27,South,180,15.0,15.0,71,0.00,CLR,,0.00,WeatherDisplay:10.37,2013-11-13 12:57:00,
2013-11-13 07:02:00,21.7,13.5,29.26,South,180,12.7,12.7,70,0.00,CLR,,0.00,WeatherDisplay:10.37,2013-11-13 13:02:00,
2013-11-13 07:07:00,21.7,14.1,29.26,South,180,12.7,12.7,72,0.00,CLR,,0.00,WeatherDisplay:10.37,2013-11-13 13:07:00,
2013-11-13 07:12:00,21.7,13.8,29.26,South,180,13.8,13.8,71,0.00,CLR,,0.00,WeatherDisplay:10.37,2013-11-13 13:12:00,
2013-11-13 07:17:00,22.1,14.1,29.25,South,180,15.0,15.0,71,0.00,CLR,,0.00,WeatherDisplay:10.37,2013-11-13 13:17:00,
2013-11-13 07:22:00,22.1,13.5,29.25,South,180,17.3,17.3,69,0.00,CLR,,0.00,WeatherDisplay:10.37,2013-11-13 13:22:00,
2013-11-13 07:27:00,22.5,14.1,29.25,South,180,13.8,13.8,70,0.00,CLR,,0.00,WeatherDisplay:10.37,2013-11-13 13:27:00,
2013-11-13 07:32:00,22.6,14.0,29.25,South,180,13.8,13.8,69,0.00,CLR,,0.00,WeatherDisplay:10.37,2013-11-13 13:32:00,
2013-11-13 07:37:00,23.0,14.3,29.25,SSE,158,15.0,15.0,69,0.00,CLR,,0.00,WeatherDisplay:10.37,2013-11-13 13:37:00,
2013-11-13 07:42:00,23.0,13.7,29.25,South,180,13.8,13.8,67,0.00,CLR,,0.00,WeatherDisplay:10.37,2013-11-13 13:42:00,
2013-11-13 07:47:00,23.4,14.7,29.24,South,180,13.8,13.8,69,0.00,CLR,,0.00,WeatherDisplay:10.37,2013-11-13 13:47:00,
2013-11-13 07:52:00,23.5,14.5,29.24,South,180,11.5,11.5,68,0.00,CLR,,0.00,WeatherDisplay:10.37,2013-11-13 13:52:00,
2013-11-13 07:57:00,23.5,14.2,29.25,South,180,13.8,13.8,67,0.00,CLR,,0.00,WeatherDisplay:10.37,2013-11-13 13:57:00,
2013-11-13 08:02:00,23.9,14.5,29.24,South,180,11.5,11.5,67,0.00,CLR,,0.00,WeatherDisplay:10.37,2013-11-13 14:02:00,
2013-11-13 08:07:00,24.3,14.5,29.24,South,180,15.0,15.0,66,0.00,CLR,,0.00,WeatherDisplay:10.37,2013-11-13 14:07:00,
2013-11-13 08:12:00,24.6,15.2,29.23,South,180,17.3,17.3,67,0.00,CLR,,0.00,WeatherDisplay:10.37,2013-11-13 14:12:00,
2013-11-13 08:17:00,25.3,15.9,29.23,South,180,12.7,12.7,67,0.00,CLR,,0.00,WeatherDisplay:10.37,2013-11-13 14:17:00,
2013-11-13 08:22:00,26.1,15.9,29.23,SE,135,11.5,11.5,65,0.00,CLR,,0.00,WeatherDisplay:10.37,2013-11-13 14:22:00,
2013-11-13 08:27:00,26.4,15.9,29.22,SE,135,13.8,13.8,64,0.00,CLR,,0.00,WeatherDisplay:10.37,2013-11-13 14:27:00,
2013-11-13 08:32:00,26.4,15.9,29.22,South,180,15.0,15.0,64,0.00,CLR,,0.00,WeatherDisplay:10.37,2013-11-13 14:32:00,
2013-11-13 08:37:00,27.0,16.0,29.22,South,180,12.7,12.7,63,0.00,CLR,,0.00,WeatherDisplay:10.37,2013-11-13 14:37:00,
2013-11-13 08:42:00,27.0,15.7,29.22,South,180,13.8,13.8,62,0.00,CLR,,0.00,WeatherDisplay:10.37,2013-11-13 14:42:00,
2013-11-13 08:47:00,26.8,15.5,29.22,SW,225,15.0,15.0,62,0.00,CLR,,0.00,WeatherDisplay:10.37,2013-11-13 14:47:00,
2013-11-13 08:52:00,27.0,15.7,29.22,South,180,16.1,16.1,62,0.00,CLR,,0.00,WeatherDisplay:10.37,2013-11-13 14:52:00,
2013-11-13 08:57:00,27.0,16.0,29.21,South,180,18.4,18.4,63,0.00,CLR,,0.00,WeatherDisplay:10.37,2013-11-13 14:57:00,
2013-11-13 09:02:00,27.0,15.7,29.21,South,180,15.2,15.2,62,0.00,CLR,,0.00,WeatherDisplay:10.37,2013-11-13 15:02:00,
2013-11-13 09:07:00,27.0,15.7,29.20,South,180,15.0,15.0,62,0.00,CLR,,0.00,WeatherDisplay:10.37,2013-11-13 15:07:00,
2013-11-13 09:12:00,28.4,16.7,29.20,South,180,15.0,15.0,61,0.00,CLR,,0.00,WeatherDisplay:10.37,2013-11-13 15:12:00,
2013-11-13 09:17:00,28.8,17.0,29.20,South,180,16.1,16.1,61,0.00,CLR,,0.00,WeatherDisplay:10.37,2013-11-13 15:17:00,
2013-11-13 09:22:00,29.3,17.1,29.20,South,180,15.0,15.0,60,0.00,CLR,,0.00,WeatherDisplay:10.37,2013-11-13 15:22:00,
2013-11-13 09:27:00,30.0,17.8,29.19,South,180,15.0,15.0,60,0.00,CLR,,0.00,WeatherDisplay:10.37,2013-11-13 15:27:00,
2013-11-13 09:32:00,30.4,18.1,29.18,South,180,15.0,15.0,60,0.00,CLR,,0.00,WeatherDisplay:10.37,2013-11-13 15:32:00,
2013-11-13 09:37:00,30.9,18.3,29.18,South,180,13.8,13.8,59,0.00,CLR,,0.00,WeatherDisplay:10.37,2013-11-13 15:37:00,
2013-11-13 09:42:00,31.3,18.6,29.18,South,180,17.3,17.3,59,0.00,CLR,,0.00,WeatherDisplay:10.37,2013-11-13 15:42:00,
2013-11-13 09:47:00,32.0,19.3,29.18,South,180,12.7,12.7,59,0.00,CLR,,0.00,WeatherDisplay:10.37,2013-11-13 15:47:00,
2013-11-13 09:52:00,32.2,18.6,29.17,South,180,19.6,19.6,57,0.00,CLR,,0.00,WeatherDisplay:10.37,2013-11-13 15:52:00,
2013-11-13 09:57:00,33.1,19.9,29.17,SW,225,18.4,18.4,58,0.00,CLR,,0.00,WeatherDisplay:10.37,2013-11-13 15:57:00,
2013-11-13 10:02:00,33.4,19.8,29.16,South,180,16.1,16.1,57,0.00,CLR,,0.00,WeatherDisplay:10.37,2013-11-13 16:02:00,
2013-11-13 10:07:00,33.4,19.8,29.17,South,180,16.1,16.1,57,0.00,CLR,,0.00,WeatherDisplay:10.37,2013-11-13 16:07:00,
2013-11-13 10:12:00,34.5,20.4,29.16,SW,225,26.5,26.5,56,0.02,RA,,0.02,WeatherDisplay:10.37,2013-11-13 16:12:00,
2013-11-13 10:17:00,35.4,21.3,29.16,South,180,20.7,20.7,56,0.02,RA,,0.02,WeatherDisplay:10.37,2013-11-13 16:17:00,
2013-11-13 10:22:00,35.6,21.0,29.16,South,180,28.8,28.8,55,0.02,,,0.02,WeatherDisplay:10.37,2013-11-13 16:22:00,
2013-11-13 10:27:00,36.3,21.7,29.16,SW,225,20.7,20.7,55,0.02,CLR,,0.02,WeatherDisplay:10.37,2013-11-13 16:27:00,
2013-11-13 10:32:00,37.0,22.4,29.15,South,180,15.0,15.0,55,0.02,CLR,,0.02,WeatherDisplay:10.37,2013-11-13 16:32:00,
2013-11-13 10:37:00,37.0,21.9,29.15,South,180,26.5,26.5,54,0.02,CLR,,0.02,WeatherDisplay:10.37,2013-11-13 16:37:00,
2013-11-13 10:42:00,37.6,22.4,29.14,SE,135,17.3,17.3,54,0.02,CLR,,0.02,WeatherDisplay:10.37,2013-11-13 16:42:00,
2013-11-13 10:47:00,37.8,22.6,29.15,South,180,21.9,21.9,54,0.02,CLR,,0.02,WeatherDisplay:10.37,2013-11-13 16:47:00,
2013-11-13 10:52:00,37.8,22.1,29.14,SW,225,21.9,21.9,53,0.04,RA,,0.04,WeatherDisplay:10.37,2013-11-13 16:52:00,
2013-11-13 10:57:00,38.8,23.2,29.13,SW,225,17.3,17.3,53,0.04,RA,,0.04,WeatherDisplay:10.37,2013-11-13 16:57:00,
2013-11-13 11:02:00,38.8,23.2,29.13,SW,225,15.0,15.0,53,0.04,,,0.04,WeatherDisplay:10.37,2013-11-13 17:02:00,
2013-11-13 11:07:00,39.7,23.5,29.12,SW,225,17.3,17.3,52,0.04,CLR,,0.04,WeatherDisplay:10.37,2013-11-13 17:07:00,
2013-11-13 11:12:00,39.6,23.4,29.12,South,180,25.3,25.3,52,0.01,CLR,,0.04,WeatherDisplay:10.37,2013-11-13 17:12:00,
2013-11-13 11:17:00,39.6,23.8,29.11,South,180,27.6,27.6,53,0.01,CLR,,0.04,WeatherDisplay:10.37,2013-11-13 17:17:00,
2013-11-13 11:22:00,39.7,23.5,29.11,South,180,18.4,18.4,52,0.01,CLR,,0.04,WeatherDisplay:10.37,2013-11-13 17:22:00,
2013-11-13 11:27:00,40.8,24.1,29.10,South,180,22.2,22.2,51,0.01,CLR,,0.06,WeatherDisplay:10.37,2013-11-13 17:27:00,
2013-11-13 11:32:00,41.7,24.9,29.10,SW,225,18.4,18.4,51,0.04,RA,,0.06,WeatherDisplay:10.37,2013-11-13 17:32:00,
2013-11-13 11:37:00,41.5,24.7,29.10,SW,225,23.0,23.0,51,0.04,RA,,0.06,WeatherDisplay:10.37,2013-11-13 17:37:00,
2013-11-13 11:42:00,41.9,25.1,29.09,SW,225,20.7,20.7,51,0.04,CLR,,0.06,WeatherDisplay:10.37,2013-11-13 17:42:00,
2013-11-13 11:47:00,42.6,25.3,29.08,SW,225,21.9,21.9,50,0.04,CLR,,0.06,WeatherDisplay:10.37,2013-11-13 17:47:00,
2013-11-13 11:52:00,43.0,25.1,29.08,SW,225,23.0,23.0,49,0.02,CLR,,0.06,WeatherDisplay:10.37,2013-11-13 17:52:00,
2013-11-13 11:57:00,43.5,26.1,29.07,South,180,16.1,16.1,50,0.02,CLR,,0.06,WeatherDisplay:10.37,2013-11-13 17:57:00,
2013-11-13 12:02:00,43.9,25.9,29.07,South,180,17.3,17.3,49,0.02,CLR,,0.06,WeatherDisplay:10.37,2013-11-13 18:02:00,
2013-11-13 12:07:00,43.9,25.9,29.07,South,180,17.3,17.3,49,0.02,CLR,,0.06,WeatherDisplay:10.37,2013-11-13 18:07:00,
2013-11-13 12:12:00,44.1,26.1,29.07,SW,225,19.6,19.6,49,0.02,CLR,,0.06,WeatherDisplay:10.37,2013-11-13 18:12:00,
2013-11-13 12:17:00,44.4,25.9,29.06,SW,225,19.6,19.6,48,0.02,CLR,,0.06,WeatherDisplay:10.37,2013-11-13 18:17:00,
2013-11-13 12:22:00,44.6,26.1,29.06,SW,225,19.6,19.6,48,0.02,CLR,,0.06,WeatherDisplay:10.37,2013-11-13 18:22:00,
2013-11-13 12:27:00,45.1,26.6,29.06,South,180,13.8,13.8,48,0.02,CLR,,0.06,WeatherDisplay:10.37,2013-11-13 18:27:00,
2013-11-13 12:32:00,45.1,26.6,29.05,South,180,20.7,20.7,48,0.00,CLR,,0.06,WeatherDisplay:10.37,2013-11-13 18:32:00,
2013-11-13 12:37:00,45.3,26.3,29.05,South,180,17.3,17.3,47,0.00,CLR,,0.06,WeatherDisplay:10.37,2013-11-13 18:37:00,
2013-11-13 12:42:00,45.7,26.6,29.04,South,180,17.3,17.3,47,0.00,CLR,,0.06,WeatherDisplay:10.37,2013-11-13 18:42:00,
2013-11-13 12:47:00,45.7,27.1,29.04,South,180,17.3,17.3,48,0.00,CLR,,0.06,WeatherDisplay:10.37,2013-11-13 18:47:00,
2013-11-13 12:52:00,46.4,27.2,29.03,South,180,19.6,19.6,47,0.00,CLR,,0.06,WeatherDisplay:10.37,2013-11-13 18:52:00,
2013-11-13 12:57:00,46.0,26.9,29.03,South,180,23.0,23.0,47,0.01,RA,,0.08,WeatherDisplay:10.37,2013-11-13 18:57:00,
2013-11-13 13:02:00,46.0,27.4,29.03,SW,225,24.2,24.2,48,0.07,RA,,0.13,WeatherDisplay:10.37,2013-11-13 19:02:00,
2013-11-13 13:07:00,46.0,27.4,29.02,SW,225,24.4,24.4,48,0.07,RA,,0.13,WeatherDisplay:10.37,2013-11-13 19:07:00,
2013-11-13 13:12:00,47.3,27.5,29.02,SW,225,20.7,20.7,46,0.07,CLR,,0.13,WeatherDisplay:10.37,2013-11-13 19:12:00,
2013-11-13 13:17:00,47.7,27.9,29.02,South,180,18.4,18.4,46,0.07,CLR,,0.13,WeatherDisplay:10.37,2013-11-13 19:17:00,
2013-11-13 13:22:00,47.8,28.0,29.01,South,180,19.6,19.6,46,0.07,CLR,,0.13,WeatherDisplay:10.37,2013-11-13 19:22:00,
2013-11-13 13:27:00,47.5,27.7,29.01,SW,225,27.6,27.6,46,0.07,CLR,,0.13,WeatherDisplay:10.37,2013-11-13 19:27:00,
2013-11-13 13:32:00,47.8,28.6,29.01,South,180,19.6,19.6,47,0.07,CLR,,0.13,WeatherDisplay:10.37,2013-11-13 19:32:00,
2013-11-13 13:37:00,47.8,28.0,29.00,South,180,23.0,23.0,46,0.07,CLR,,0.13,WeatherDisplay:10.37,2013-11-13 19:37:00,
2013-11-13 13:42:00,47.5,27.7,29.00,South,180,24.2,24.2,46,0.11,RA,,0.17,WeatherDisplay:10.37,2013-11-13 19:42:00,
2013-11-13 13:47:00,47.7,28.4,29.00,SW,225,24.2,24.2,47,0.12,RA,,0.18,WeatherDisplay:10.37,2013-11-13 19:47:00,
2013-11-13 13:52:00,47.8,28.0,29.00,SW,225,26.5,26.5,46,0.14,RA,,0.20,WeatherDisplay:10.37,2013-11-13 19:52:00,
2013-11-13 13:57:00,48.2,28.9,29.00,SW,225,17.3,17.3,47,0.13,RA,,0.20,WeatherDisplay:10.37,2013-11-13 19:57:00,
2013-11-13 14:02:00,48.2,28.9,28.99,SW,225,17.3,17.3,47,0.07,,,0.20,WeatherDisplay:10.37,2013-11-13 20:02:00,
2013-11-13 14:07:00,48.2,28.9,28.99,SW,225,17.3,17.3,47,0.07,CLR,,0.20,WeatherDisplay:10.37,2013-11-13 20:07:00,
2013-11-13 14:12:00,48.6,28.7,28.99,South,180,23.0,23.0,46,0.07,CLR,,0.20,WeatherDisplay:10.37,2013-11-13 20:12:00,
2013-11-13 14:17:00,48.7,29.4,28.98,SW,225,17.3,17.3,47,0.07,CLR,,0.20,WeatherDisplay:10.37,2013-11-13 20:17:00,
2013-11-13 14:22:00,48.2,28.4,28.98,South,180,25.3,25.3,46,0.07,CLR,,0.20,WeatherDisplay:10.37,2013-11-13 20:22:00,
2013-11-13 14:27:00,48.2,28.9,28.98,SW,225,23.0,23.0,47,0.07,CLR,,0.20,WeatherDisplay:10.37,2013-11-13 20:27:00,
2013-11-13 14:32:00,48.6,28.7,28.98,SW,225,23.0,23.0,46,0.07,CLR,,0.20,WeatherDisplay:10.37,2013-11-13 20:32:00,
2013-11-13 14:37:00,48.0,29.2,28.98,SW,225,26.5,26.5,48,0.20,RA,,0.33,WeatherDisplay:10.37,2013-11-13 20:37:00,
2013-11-13 14:42:00,48.4,29.1,28.98,South,180,16.1,16.1,47,0.19,RA,,0.33,WeatherDisplay:10.37,2013-11-13 20:42:00,
2013-11-13 14:47:00,48.4,29.1,28.97,SW,225,19.6,19.6,47,0.15,,,0.33,WeatherDisplay:10.37,2013-11-13 20:47:00,
2013-11-13 14:52:00,48.6,29.2,28.98,SW,225,22.2,22.2,47,0.14,CLR,,0.33,WeatherDisplay:10.37,2013-11-13 20:52:00,
2013-11-13 14:57:00,48.4,29.6,28.98,SW,225,20.7,20.7,48,0.13,CLR,,0.33,WeatherDisplay:10.37,2013-11-13 20:57:00,
2013-11-13 15:02:00,48.4,29.6,28.97,SW,225,18.4,18.4,48,0.13,CLR,,0.33,WeatherDisplay:10.37,2013-11-13 21:02:00,
2013-11-13 15:07:00,48.4,29.6,28.97,SW,225,18.4,18.4,48,0.13,CLR,,0.33,WeatherDisplay:10.37,2013-11-13 21:07:00,
2013-11-13 15:12:00,48.6,29.7,28.97,South,180,20.7,20.7,48,0.13,CLR,,0.33,WeatherDisplay:10.37,2013-11-13 21:12:00,
2013-11-13 15:17:00,48.4,29.6,28.97,SW,225,20.7,20.7,48,0.13,CLR,,0.33,WeatherDisplay:10.37,2013-11-13 21:17:00,
2013-11-13 15:22:00,48.6,30.2,28.97,SW,225,12.7,12.7,49,0.13,CLR,,0.33,WeatherDisplay:10.37,2013-11-13 21:22:00,
2013-11-13 15:27:00,48.7,29.9,28.97,South,180,16.1,16.1,48,0.13,CLR,,0.33,WeatherDisplay:10.37,2013-11-13 21:27:00,
2013-11-13 15:32:00,48.2,29.9,28.97,SW,225,20.7,20.7,49,0.13,CLR,,0.33,WeatherDisplay:10.37,2013-11-13 21:32:00,
2013-11-13 15:37:00,48.0,29.7,28.98,SW,225,12.7,13.0,49,0.00,CLR,,0.33,WeatherDisplay:10.37,2013-11-13 21:37:00,
2013-11-13 15:42:00,47.5,29.7,28.98,South,180,13.8,13.8,50,0.00,CLR,,0.33,WeatherDisplay:10.37,2013-11-13 21:42:00,
2013-11-13 15:47:00,47.3,30.1,28.98,South,180,16.1,16.1,51,0.00,CLR,,0.33,WeatherDisplay:10.37,2013-11-13 21:47:00,
2013-11-13 15:52:00,46.9,30.2,28.98,SW,225,12.7,12.7,52,0.00,CLR,,0.33,WeatherDisplay:10.37,2013-11-13 21:52:00,
2013-11-13 15:57:00,46.6,30.3,28.98,SW,225,15.0,15.0,53,0.00,CLR,,0.33,WeatherDisplay:10.37,2013-11-13 21:57:00,
2013-11-13 16:02:00,46.2,30.0,28.98,SW,225,15.2,15.2,53,0.00,CLR,,0.33,WeatherDisplay:10.37,2013-11-13 22:02:00,
2013-11-13 16:07:00,46.2,30.0,28.97,SW,225,15.0,15.0,53,0.00,CLR,,0.33,WeatherDisplay:10.37,2013-11-13 22:07:00,
2013-11-13 16:12:00,45.9,30.1,28.97,SW,225,19.6,19.6,54,0.00,CLR,,0.33,WeatherDisplay:10.37,2013-11-13 22:12:00,
2013-11-13 16:17:00,45.5,29.8,28.97,SW,225,19.6,19.6,54,0.00,CLR,,0.33,WeatherDisplay:10.37,2013-11-13 22:17:00,
2013-11-13 16:22:00,45.3,30.1,28.97,South,180,17.3,17.3,55,0.00,CLR,,0.33,WeatherDisplay:10.37,2013-11-13 22:22:00,
2013-11-13 16:27:00,45.0,30.2,28.96,SW,225,15.0,15.0,56,0.00,CLR,,0.33,WeatherDisplay:10.37,2013-11-13 22:27:00,
2013-11-13 16:32:00,44.8,30.0,28.97,South,180,18.4,18.4,56,0.00,CLR,,0.33,WeatherDisplay:10.37,2013-11-13 22:32:00,
2013-11-13 16:37:00,44.6,30.3,28.96,South,180,16.1,16.1,57,0.00,CLR,,0.33,WeatherDisplay:10.37,2013-11-13 22:37:00,
2013-11-13 16:42:00,44.6,30.3,28.96,South,180,19.6,19.6,57,0.00,CLR,,0.33,WeatherDisplay:10.37,2013-11-13 22:42:00,
2013-11-13 16:47:00,44.4,30.1,28.96,South,180,23.0,23.0,57,0.00,CLR,,0.33,WeatherDisplay:10.37,2013-11-13 22:47:00,
2013-11-13 16:52:00,44.1,30.2,28.95,South,180,16.1,16.1,58,0.00,CLR,,0.33,WeatherDisplay:10.37,2013-11-13 22:52:00,
2013-11-13 16:57:00,44.1,30.2,28.95,SW,225,21.3,21.3,58,0.00,CLR,,0.33,WeatherDisplay:10.37,2013-11-13 22:57:00,
2013-11-13 17:02:00,43.7,29.9,28.96,South,180,15.0,15.0,58,0.00,CLR,,0.33,WeatherDisplay:10.37,2013-11-13 23:02:00,
2013-11-13 17:07:00,43.5,30.1,28.96,SW,225,12.7,12.7,59,0.00,CLR,,0.33,WeatherDisplay:10.37,2013-11-13 23:07:00,
2013-11-13 17:12:00,43.7,30.3,28.96,SW,225,11.5,11.5,59,0.00,CLR,,0.33,WeatherDisplay:10.37,2013-11-13 23:12:00,
2013-11-13 17:17:00,43.5,30.1,28.97,SW,225,10.4,10.4,59,0.00,CLR,,0.33,WeatherDisplay:10.37,2013-11-13 23:17:00,
2013-11-13 17:22:00,43.5,30.1,28.97,SW,225,12.7,12.7,59,0.00,CLR,,0.33,WeatherDisplay:10.37,2013-11-13 23:22:00,
2013-11-13 17:27:00,43.7,30.3,28.97,SW,225,15.0,15.0,59,0.00,CLR,,0.33,WeatherDisplay:10.37,2013-11-13 23:27:00,
2013-11-13 17:32:00,43.3,30.4,28.97,SW,225,9.2,9.2,60,0.00,CLR,,0.33,WeatherDisplay:10.37,2013-11-13 23:32:00,
2013-11-13 17:37:00,43.2,30.2,28.97,SW,225,11.5,11.5,60,0.00,CLR,,0.33,WeatherDisplay:10.37,2013-11-13 23:37:00,
2013-11-13 17:42:00,42.8,30.3,28.97,South,180,10.4,10.4,61,0.00,CLR,,0.33,WeatherDisplay:10.37,2013-11-13 23:42:00,
2013-11-13 17:47:00,42.6,30.1,28.98,South,180,9.2,9.2,61,0.00,CLR,,0.33,WeatherDisplay:10.37,2013-11-13 23:47:00,
2013-11-13 17:52:00,42.3,30.2,28.98,South,180,8.1,8.1,62,0.00,CLR,,0.33,WeatherDisplay:10.37,2013-11-13 23:52:00,
2013-11-13 17:57:00,41.9,30.2,28.97,South,180,5.8,5.8,63,0.00,CLR,,0.33,WeatherDisplay:10.37,2013-11-13 23:57:00,
2013-11-13 18:02:00,41.7,30.4,28.98,South,180,5.8,5.8,64,0.00,CLR,,0.33,WeatherDisplay:10.37,2013-11-14 00:02:00,
2013-11-13 18:07:00,41.5,29.9,28.98,South,180,5.8,5.8,63,0.00,CLR,,0.33,WeatherDisplay:10.37,2013-11-14 00:07:00,
2013-11-13 18:12:00,41.4,30.1,28.98,SW,225,6.0,6.0,64,0.00,CLR,,0.33,WeatherDisplay:10.37,2013-11-14 00:12:00,
2013-11-13 18:17:00,41.4,30.1,28.98,South,180,8.1,8.1,64,0.00,CLR,,0.33,WeatherDisplay:10.37,2013-11-14 00:17:00,
2013-11-13 18:22:00,41.4,30.1,28.98,South,180,8.1,8.1,64,0.00,CLR,,0.33,WeatherDisplay:10.37,2013-11-14 00:22:00,
2013-11-13 18:27:00,41.0,30.5,28.98,South,180,8.1,8.1,66,0.00,CLR,,0.33,WeatherDisplay:10.37,2013-11-14 00:27:00,
2013-11-13 18:32:00,41.2,29.9,28.97,South,180,12.7,12.7,64,0.00,CLR,,0.33,WeatherDisplay:10.37,2013-11-14 00:32:00,
2013-11-13 18:37:00,41.4,30.1,28.97,South,180,11.5,11.5,64,0.00,CLR,,0.33,WeatherDisplay:10.37,2013-11-14 00:37:00,
2013-11-13 18:42:00,41.4,29.7,28.96,South,180,12.7,12.7,63,0.00,CLR,,0.33,WeatherDisplay:10.37,2013-11-14 00:42:00,
2013-11-13 18:47:00,41.4,29.7,28.96,South,180,11.5,11.5,63,0.00,CLR,,0.33,WeatherDisplay:10.37,2013-11-14 00:47:00,
2013-11-13 18:52:00,41.4,29.7,28.96,South,180,10.4,10.4,63,0.00,CLR,,0.33,WeatherDisplay:10.37,2013-11-14 00:52:00,
2013-11-13 18:57:00,41.2,29.9,28.96,South,180,9.2,9.2,64,0.00,CLR,,0.33,WeatherDisplay:10.37,2013-11-14 00:57:00,
2013-11-13 19:02:00,41.4,30.1,28.96,South,180,10.4,10.4,64,0.00,CLR,,0.33,WeatherDisplay:10.37,2013-11-14 01:02:00,
2013-11-13 19:07:00,41.4,30.1,28.96,South,180,10.4,10.4,64,0.00,CLR,,0.33,WeatherDisplay:10.37,2013-11-14 01:07:00,
2013-11-13 19:12:00,41.4,30.1,28.97,South,180,10.4,10.4,64,0.00,CLR,,0.33,WeatherDisplay:10.37,2013-11-14 01:12:00,
2013-11-13 19:17:00,41.4,30.1,28.96,South,180,9.2,9.2,64,0.00,CLR,,0.33,WeatherDisplay:10.37,2013-11-14 01:17:00,
2013-11-13 19:22:00,41.2,29.9,28.96,South,180,6.9,6.9,64,0.00,CLR,,0.33,WeatherDisplay:10.37,2013-11-14 01:22:00,
2013-11-13 19:27:00,41.2,29.9,28.96,South,180,12.7,12.7,64,0.00,CLR,,0.33,WeatherDisplay:10.37,2013-11-14 01:27:00,
2013-11-13 19:32:00,41.2,29.9,28.96,South,180,12.7,12.7,64,0.00,CLR,,0.33,WeatherDisplay:10.37,2013-11-14 01:32:00,
2013-11-13 19:37:00,41.2,29.9,28.95,South,180,12.7,12.7,64,0.00,CLR,,0.33,WeatherDisplay:10.37,2013-11-14 01:37:00,
2013-11-13 19:42:00,41.2,29.9,28.95,South,180,11.5,11.5,64,0.00,CLR,,0.33,WeatherDisplay:10.37,2013-11-14 01:42:00,
2013-11-13 19:47:00,41.0,29.7,28.95,South,180,10.4,10.4,64,0.00,CLR,,0.33,WeatherDisplay:10.37,2013-11-14 01:47:00,
2013-11-13 19:52:00,41.2,29.9,28.95,South,180,15.0,15.0,64,0.00,CLR,,0.33,WeatherDisplay:10.37,2013-11-14 01:52:00,
2013-11-13 19:57:00,41.0,29.7,28.95,SE,135,12.7,12.7,64,0.00,CLR,,0.33,WeatherDisplay:10.37,2013-11-14 01:57:00,
2013-11-13 20:02:00,41.0,29.7,28.95,South,180,9.2,9.2,64,0.00,CLR,,0.33,WeatherDisplay:10.37,2013-11-14 02:02:00,
2013-11-13 20:07:00,41.0,29.7,28.95,South,180,9.2,9.2,64,0.00,CLR,,0.33,WeatherDisplay:10.37,2013-11-14 02:07:00,
2013-11-13 20:12:00,41.0,29.7,28.95,South,180,10.4,10.4,64,0.00,CLR,,0.33,WeatherDisplay:10.37,2013-11-14 02:12:00,
2013-11-13 20:17:00,41.0,29.7,28.95,South,180,12.7,12.7,64,0.00,CLR,,0.33,WeatherDisplay:10.37,2013-11-14 02:17:00,
2013-11-13 20:22:00,40.8,29.6,28.95,SW,225,9.8,9.8,64,0.00,CLR,,0.33,WeatherDisplay:10.37,2013-11-14 02:22:00,
2013-11-13 20:27:00,40.8,29.6,28.95,South,180,12.7,12.7,64,0.00,CLR,,0.33,WeatherDisplay:10.37,2013-11-14 02:27:00,
2013-11-13 20:32:00,40.6,29.4,28.95,South,180,10.4,10.4,64,0.00,CLR,,0.33,WeatherDisplay:10.37,2013-11-14 02:32:00,
2013-11-13 20:37:00,40.6,29.8,28.95,South,180,6.9,6.9,65,0.00,CLR,,0.33,WeatherDisplay:10.37,2013-11-14 02:37:00,
2013-11-13 20:42:00,40.6,29.4,28.95,SW,225,8.1,8.1,64,0.00,CLR,,0.33,WeatherDisplay:10.37,2013-11-14 02:42:00,
2013-11-13 20:47:00,40.5,29.6,28.94,South,180,6.9,6.9,65,0.00,CLR,,0.33,WeatherDisplay:10.37,2013-11-14 02:47:00,
2013-11-13 20:52:00,40.5,29.6,28.95,South,180,6.9,6.9,65,0.00,CLR,,0.33,WeatherDisplay:10.37,2013-11-14 02:52:00,
2013-11-13 20:57:00,40.3,29.4,28.95,South,180,5.8,5.8,65,0.00,CLR,,0.33,WeatherDisplay:10.37,2013-11-14 02:57:00,
2013-11-13 21:02:00,40.1,29.6,28.95,South,180,6.9,6.9,66,0.00,CLR,,0.33,WeatherDisplay:10.37,2013-11-14 03:02:00,
2013-11-13 21:07:00,40.1,29.6,28.95,South,180,6.9,6.9,66,0.00,CLR,,0.33,WeatherDisplay:10.37,2013-11-14 03:07:00,
2013-11-13 21:12:00,39.9,29.1,28.94,South,180,5.8,5.8,65,0.00,CLR,,0.33,WeatherDisplay:10.37,2013-11-14 03:12:00,
2013-11-13 21:17:00,39.7,29.3,28.94,SW,225,5.8,5.8,66,0.00,CLR,,0.33,WeatherDisplay:10.37,2013-11-14 03:17:00,
2013-11-13 21:22:00,39.6,29.5,28.94,South,180,5.8,5.8,67,0.00,CLR,,0.33,WeatherDisplay:10.37,2013-11-14 03:22:00,
2013-11-13 21:27:00,39.6,29.1,28.95,South,180,6.9,6.9,66,0.00,CLR,,0.33,WeatherDisplay:10.37,2013-11-14 03:27:00,
2013-11-13 21:32:00,39.6,29.5,28.94,South,180,5.8,5.8,67,0.00,CLR,,0.33,WeatherDisplay:10.37,2013-11-14 03:32:00,
2013-11-13 21:37:00,39.2,29.5,28.94,South,180,6.9,6.9,68,0.00,CLR,,0.33,WeatherDisplay:10.37,2013-11-14 03:37:00,
2013-11-13 21:42:00,39.2,29.5,28.94,South,180,8.1,8.1,68,0.00,CLR,,0.33,WeatherDisplay:10.37,2013-11-14 03:42:00,
2013-11-13 21:47:00,39.2,29.5,28.94,South,180,9.2,9.2,68,0.00,CLR,,0.33,WeatherDisplay:10.37,2013-11-14 03:47:00,
2013-11-13 21:52:00,39.2,29.5,28.93,South,180,8.1,8.1,68,0.00,CLR,,0.33,WeatherDisplay:10.37,2013-11-14 03:52:00,
2013-11-13 21:57:00,39.2,29.5,28.93,South,180,9.2,9.2,68,0.00,CLR,,0.33,WeatherDisplay:10.37,2013-11-14 03:57:00,
2013-11-13 22:02:00,39.4,29.7,28.93,South,180,8.1,8.1,68,0.00,CLR,,0.33,WeatherDisplay:10.37,2013-11-14 04:02:00,
2013-11-13 22:07:00,39.4,29.7,28.93,South,180,8.1,8.1,68,0.00,CLR,,0.33,WeatherDisplay:10.37,2013-11-14 04:07:00,
2013-11-13 22:12:00,39.4,29.3,28.93,South,180,10.4,10.4,67,0.00,CLR,,0.33,WeatherDisplay:10.37,2013-11-14 04:12:00,
2013-11-13 22:17:00,39.6,29.1,28.93,South,180,9.2,9.2,66,0.00,CLR,,0.33,WeatherDisplay:10.37,2013-11-14 04:17:00,
2013-11-13 22:22:00,39.4,29.0,28.93,SW,225,10.4,10.4,66,0.00,CLR,,0.33,WeatherDisplay:10.37,2013-11-14 04:22:00,
2013-11-13 22:27:00,39.6,29.1,28.93,SW,225,8.1,8.1,66,0.00,CLR,,0.33,WeatherDisplay:10.37,2013-11-14 04:27:00,
2013-11-13 22:32:00,39.6,29.1,28.93,SW,225,8.1,8.1,66,0.00,CLR,,0.33,WeatherDisplay:10.37,2013-11-14 04:32:00,
2013-11-13 22:37:00,39.4,29.0,28.93,South,180,8.1,8.1,66,0.00,CLR,,0.33,WeatherDisplay:10.37,2013-11-14 04:37:00,
2013-11-13 22:42:00,39.6,29.1,28.92,South,180,8.1,8.1,66,0.00,CLR,,0.33,WeatherDisplay:10.37,2013-11-14 04:42:00,
2013-11-13 22:47:00,39.6,29.1,28.92,SW,225,8.1,8.1,66,0.00,CLR,,0.33,WeatherDisplay:10.37,2013-11-14 04:47:00,
2013-11-13 22:52:00,39.6,29.1,28.93,SW,225,6.9,6.9,66,0.00,CLR,,0.33,WeatherDisplay:10.37,2013-11-14 04:52:00,
2013-11-13 22:57:00,39.6,28.8,28.92,SSE,158,5.8,5.8,65,0.00,CLR,,0.33,WeatherDisplay:10.37,2013-11-14 04:57:00,
2013-11-13 23:01:00,39.4,29.0,28.92,South,180,4.6,4.6,66,0.00,CLR,,0.33,WeatherDisplay:10.37,2013-11-14 05:01:00,
2013-11-13 23:06:00,39.4,29.0,28.93,South,180,4.6,4.6,66,0.00,CLR,,0.33,WeatherDisplay:10.37,2013-11-14 05:06:00,
2013-11-13 23:11:00,39.2,28.8,28.92,South,180,6.9,6.9,66,0.00,CLR,,0.33,WeatherDisplay:10.37,2013-11-14 05:11:00,
2013-11-13 23:16:00,39.0,28.6,28.92,South,180,5.8,5.8,66,0.00,CLR,,0.33,WeatherDisplay:10.37,2013-11-14 05:16:00,
2013-11-13 23:21:00,39.0,28.6,28.92,SW,225,6.9,6.9,66,0.00,CLR,,0.33,WeatherDisplay:10.37,2013-11-14 05:21:00,
2013-11-13 23:26:00,38.8,28.8,28.92,South,180,3.5,3.5,67,0.00,CLR,,0.33,WeatherDisplay:10.37,2013-11-14 05:26:00,
2013-11-13 23:31:00,38.8,28.4,28.92,South,180,4.6,4.6,66,0.00,CLR,,0.33,WeatherDisplay:10.37,2013-11-14 05:31:00,
2013-11-13 23:36:00,38.5,28.5,28.92,SW,225,3.5,3.5,67,0.00,CLR,,0.33,WeatherDisplay:10.37,2013-11-14 05:36:00,
2013-11-13 23:41:00,38.3,28.3,28.92,South,180,3.5,3.5,67,0.00,CLR,,0.33,WeatherDisplay:10.37,2013-11-14 05:41:00,
2013-11-13 23:46:00,38.3,28.7,28.92,South,180,5.8,5.8,68,0.00,CLR,,0.33,WeatherDisplay:10.37,2013-11-14 05:46:00,
2013-11-13 23:51:00,38.3,28.7,28.92,SW,225,5.8,5.8,68,0.00,CLR,,0.33,WeatherDisplay:10.37,2013-11-14 05:51:00,
2013-11-13 23:56:00,38.3,28.7,28.91,South,180,6.9,6.9,68,0.00,CLR,,0.33,WeatherDisplay:10.37,2013-11-14 05:56:00,